TimeCDT,TemperatureF,Dew PointF,Humidity,Sea Level PressureIn,VisibilityMPH,Wind Direction,Wind SpeedMPH,Gust SpeedMPH,PrecipitationIn,Events,Conditions,WindDirDegrees,DateUTC
12:53 AM,54.0,39.9,59,29.90,10.0,NNE,9.2,-,N/A,,Mostly Cloudy,20,2013-04-11 05:53:00
1:53 AM,53.1,39.0,59,29.91,10.0,NNE,6.9,-,N/A,,Overcast,20,2013-04-11 06:53:00
2:02 AM,53.6,39.2,58,29.92,10.0,NE,4.6,-,N/A,Thunderstorm,Overcast,50,2013-04-11 07:02:00
2:15 AM,53.6,39.2,58,29.96,10.0,Calm,Calm,-,N/A,Thunderstorm,Thunderstorm,0,2013-04-11 07:15:00
2:36 AM,51.8,41.0,67,29.92,10.0,NE,10.4,-,0.00,Rain,Light Rain,40,2013-04-11 07:36:00
2:53 AM,52.0,39.9,63,29.93,10.0,North,10.4,-,0.00,Rain,Light Rain,350,2013-04-11 07:53:00
3:53 AM,50.0,43.0,77,29.91,10.0,NNW,5.8,-,0.00,Rain,Light Rain,340,2013-04-11 08:53:00
4:53 AM,50.0,43.0,77,29.86,10.0,NE,5.8,-,0.00,,Mostly Cloudy,50,2013-04-11 09:53:00
5:53 AM,48.9,42.1,77,29.83,10.0,ENE,10.4,-,N/A,,Mostly Cloudy,60,2013-04-11 10:53:00
6:53 AM,48.0,39.9,74,29.88,10.0,NE,11.5,-,N/A,,Clear,40,2013-04-11 11:53:00
7:53 AM,48.9,37.9,66,29.93,10.0,NNE,3.5,-,N/A,,Clear,20,2013-04-11 12:53:00
8:53 AM,52.0,35.1,53,29.96,10.0,North,8.1,-,N/A,,Clear,10,2013-04-11 13:53:00
9:53 AM,54.0,33.1,45,29.97,10.0,NE,10.4,-,N/A,,Clear,40,2013-04-11 14:53:00
10:53 AM,55.9,30.9,39,29.96,10.0,NNE,5.8,-,N/A,,Clear,20,2013-04-11 15:53:00
12:53 PM,60.1,33.1,36,29.93,10.0,Variable,4.6,-,N/A,,Clear,0,2013-04-11 17:53:00
1:53 PM,63.0,32.0,31,29.89,10.0,West,4.6,-,N/A,,Clear,280,2013-04-11 18:53:00
2:53 PM,66.0,35.1,32,29.84,10.0,Variable,3.5,-,N/A,,Clear,0,2013-04-11 19:53:00
3:53 PM,66.9,39.0,36,29.81,10.0,SSE,8.1,-,N/A,,Clear,150,2013-04-11 20:53:00
4:53 PM,66.9,39.0,36,29.80,10.0,SSE,5.8,-,N/A,,Clear,160,2013-04-11 21:53:00
5:53 PM,68.0,39.0,35,29.78,10.0,Calm,Calm,-,N/A,,Clear,0,2013-04-11 22:53:00
6:53 PM,66.9,39.0,36,29.78,10.0,East,5.8,-,N/A,,Clear,90,2013-04-11 23:53:00
7:53 PM,63.0,41.0,45,29.79,10.0,ESE,4.6,-,N/A,,Clear,110,2013-04-12 00:53:00
8:53 PM,60.1,43.0,53,29.80,10.0,East,4.6,-,N/A,,Clear,100,2013-04-12 01:53:00
9:53 PM,60.1,42.1,51,29.83,10.0,East,8.1,-,N/A,,Clear,80,2013-04-12 02:53:00
10:53 PM,57.9,41.0,53,29.86,10.0,ENE,6.9,-,N/A,,Clear,70,2013-04-12 03:53:00
11:53 PM,55.0,42.1,62,29.88,10.0,Calm,Calm,-,N/A,,Clear,0,2013-04-12 04:53:00